Regional Weather Roundup
Issued by NWS

Home | Current Version | Previous Version | Text Only | Print | Product List | Glossary Off
Versions: 1 2 3 4 5 6 7 8 9 10 11 12 13 14 15 16 17 18 19 20 21 22 23 24 25 26 27 28 29 30 31 32 33 34 35 36 37 38 39 40 41 42 43 44 45 46 47 48 49 50

076
ASUS45 KCYS 052110
RWRWY

WYOMING REGIONAL WEATHER ROUNDUP
NATIONAL WEATHER SERVICE CHEYENNE WY
200 PM MST FRI FEB 05 2016

NOTE:  "FAIR" INDICATES FEW OR NO CLOUDS BELOW 12,000 FEET
WITH NO SIGNIFICANT WEATHER AND/OR OBSTRUCTIONS TO VISIBILITY.

WYZ001-052200-
YELLOWSTONE NATIONAL PARK

CITY           SKY/WX    TMP DP  RH WIND       PRES   REMARKS
LK YELLOWSTONE   N/A     24  13  62 CALM      30.35S
W YELLOWSTONE  NOT AVBL

$$
WYZ002>013-054>058-071-098>099-052200-
NORTHERN WYOMING

CITY           SKY/WX    TMP DP  RH WIND       PRES   REMARKS
JACKSON        SUNNY     21  16  79 VRB5      30.40F WCI  15
CODY           FAIR      41  12  30 W12G28    30.20S
GREYBULL       FAIR      36  14  40 S8        30.26F WCI  30
WORLAND        FAIR      36  16  44 N3        30.26F
SHERIDAN       FAIR      40  18  41 S6        30.20S
BUFFALO        FAIR      35  16  45 S13       30.19F WCI  26
GILLETTE       FAIR      34  18  52 SW10      30.20F WCI  26
HULETT         FAIR      37  21  52 SW10      30.20S WCI  30
NEWCASTLE      FAIR      37  19  48 NW10      30.23F WCI  30

$$
WYZ014>020-022>026-101>103-052200-
CENTRAL WYOMING

CITY           SKY/WX    TMP DP  RH WIND       PRES   REMARKS
BIG PINEY      FAIR      31  17  56 N22       30.33F WCI  18
PINEDALE       FAIR      27  14  59 W20G26    30.32F WCI  13
DUBOIS         FAIR      30  12  47 NW21G30   30.24F WCI  17
LANDER         FAIR      34  12  40 SE10      30.22F WCI  26
RIVERTON       FAIR      26  11  52 E5        30.24F WCI  20
CASPER         FAIR      22  12  65 SW24      30.27F WCI   5
DOUGLAS        FAIR      31  16  54 NW17      30.26F WCI  19

$$
WYZ021-027>030-104>119-052200-
SOUTHERN WYOMING

CITY           SKY/WX    TMP DP  RH WIND       PRES   REMARKS
EVANSTON       CLOUDY    26  18  71 SW16      30.42F WCI  14
FORT BRIDGER   MOCLDY    28  21  74 W22       30.44F WCI  15
ROCK SPRINGS   FAIR      25  17  72 W29       30.35F WCI   8
DIXON          CLOUDY    25  15  64 S8        30.44F WCI  16
RAWLINS        FAIR      21  13  71 W25G35    30.29F WCI   4
SARATOGA       FAIR      23  14  68 W9        30.35S WCI  13
LARAMIE        FAIR      27  12  53 NE7       30.22F WCI  19
CHEYENNE       FAIR      30  11  45 N13G23    30.21F WCI  20
TORRINGTON     FAIR      33  18  53 W13       30.25F WCI  24
PINE BLUFFS    FAIR      32  18  55 NW21G26   30.25F WCI  20

$$




USA.gov is the U.S. government's official web portal to all federal, state and local government web resources and services.